Location: Seattle
(47.6064°N, 122.3308°W)
Time: 05:37:39
(UTC-08:00)

S-56A Canister/Altair - Pass Details

Date: 02 December 2020
Orbit: 633 x 2499 km, 38.9° (Epoch: 23 January)

Event Time Altitude Azimuth Distance (km) Brightness Sun altitude
Rises 19:26:27 0° 245° (WSW) 5,853 12.9 -30.7°
Reaches altitude 10° 19:30:47 10° 240° (WSW) 4,635 12.2 -31.4°
Maximum altitude 19:42:14 48° 172° (S) 2,040 9.4 -33.4°
Enters shadow 19:42:58 47° 160° (SSE) 2,014 9.3 -33.5°
Drops below altitude 10° 19:50:02 10° 102° (ESE) 3,203 - -34.7°
Sets 19:52:30 0° 96° (E) 3,952 - -35.1°
